This is the latest recevied weather packets stored in our database for station/object KD9JJA. If no packets are shown the sender has not sent any weather packets the latest 10 day(s).
| Time | Temp. | Humidity | Pressure | Rain* | Wind** | Luminosity | Snow |
|---|---|---|---|---|---|---|---|
| 1778083603 | 12.22° C | 76% | 1015.9 hPa | 0 mm | - | 317 W/m² | - |
| 1778083300 | 12.22° C | 76% | 1015.9 hPa | 0 mm | - | 277 W/m² | - |
| 1778082998 | 12.22° C | 78% | 1015.9 hPa | 0 mm | - | 283 W/m² | - |
| 1778082694 | 12.22° C | 80% | 1015.5 hPa | 0 mm | - | 311 W/m² | - |
| 1778081557 | 11.67° C | 81% | 1015.9 hPa | 0 mm | - | 227 W/m² | - |
| 1778081253 | 11.67° C | 83% | 1015.8 hPa | 0 mm | - | 179 W/m² | - |
| 1778080951 | 11.67° C | 83% | 1015.8 hPa | 0 mm | - | 196 W/m² | - |
| 1778080650 | 11.67° C | 83% | 1015.8 hPa | 0 mm | - | 213 W/m² | - |
| 1778080346 | 11.67° C | 85% | 1015.8 hPa | 0 mm | - | 167 W/m² | - |
| 1778080042 | 11.11° C | 87% | 1015.9 hPa | 0 mm | - | 186 W/m² | - |
| 1778079740 | 11.11° C | 87% | 1015.9 hPa | 0 mm | - | 247 W/m² | - |
| 1778079437 | 11.11° C | 88% | 1015.8 hPa | 0 mm | - | 140 W/m² | - |
| 1778079133 | 11.11° C | 90% | 1015.9 hPa | 0 mm | - | 103 W/m² | - |
| 1778078831 | 11.11° C | 91% | 1015.8 hPa | 0 mm | - | 170 W/m² | - |
| 1778078527 | 11.11° C | 90% | 1015.8 hPa | 0 mm | - | 134 W/m² | - |
| 1778078225 | 10.56° C | 91% | 1015.8 hPa | 0 mm | - | 163 W/m² | - |
| 1778077923 | 10.56° C | 92% | 1015.6 hPa | 0 mm | - | 312 W/m² | - |
| 1778077621 | 10.56° C | 91% | 1015.6 hPa | 0 mm | - | 152 W/m² | - |
| 1778077319 | 10.56° C | 91% | 1015.4 hPa | 0 mm | - | 186 W/m² | - |
| 1778077016 | 10.56° C | 93% | 1014.8 hPa | 0 mm | - | 277 W/m² | - |
| 1778076714 | 10.56° C | 96% | 1015.1 hPa | 0 mm | - | 105 W/m² | - |
| 1778076411 | 10.56° C | 96% | 1015.4 hPa | 0 mm | - | 111 W/m² | - |
| 1778076109 | 10° C | 97% | 1015.1 hPa | 0 mm | - | 90 W/m² | - |
| 1778075805 | 10° C | 97% | 1015.2 hPa | 0 mm | - | 78 W/m² | - |
| 1778075502 | 10° C | 97% | 1014.9 hPa | 0 mm | - | 80 W/m² | - |
* Rain latest hour (hover to see other rain measurements)
** Current wind speed in m/s (hover to see current wind gust speed)